This is the latest recevied weather packets stored in our database for station/object T10BNorth. If no packets are shown the sender has not sent any weather packets the latest 10 day(s).
| Time | Temp. | Humidity | Pressure | Rain* | Wind** | Luminosity | Snow |
|---|---|---|---|---|---|---|---|
| 1778270076 | 10° C | 48% | 1007.1 hPa | 0 mm | - | 877 W/m² | - |
| 1778270042 | 9.44° C | 50% | 1007.2 hPa | 0 mm | - | 877 W/m² | - |
| 1778269952 | 9.44° C | 46% | 1007.1 hPa | 0 mm | - | 877 W/m² | - |
| 1778269894 | 10° C | 47% | 1007.2 hPa | 0 mm | - | 861 W/m² | - |
| 1778269833 | 10° C | 47% | 1007.2 hPa | 0 mm | - | 867 W/m² | - |
| 1778269772 | 10° C | 49% | 1007.2 hPa | 0 mm | - | 262 W/m² | - |
| 1778269713 | 10° C | 49% | 1007.2 hPa | 0 mm | - | 302 W/m² | - |
| 1778269652 | 10° C | 49% | 1007.1 hPa | 0 mm | - | 294 W/m² | - |
| 1778269593 | 10° C | 51% | 1007.1 hPa | 0 mm | - | 540 W/m² | - |
| 1778269528 | 9.44° C | 48% | 1007.2 hPa | 0 mm | - | 540 W/m² | - |
| 1778269470 | 10° C | 48% | 1007.1 hPa | 0 mm | - | 540 W/m² | - |
| 1778269409 | 10° C | 48% | 1007.1 hPa | 0 mm | - | 540 W/m² | - |
| 1778269350 | 9.44° C | 48% | 1007.2 hPa | 0 mm | - | 671 W/m² | - |
| 1778269297 | 10° C | 48% | 1007.2 hPa | 0 mm | - | 671 W/m² | - |
| 1778269276 | 10° C | 51% | 1007.1 hPa | 0 mm | - | 671 W/m² | - |
| 1778269169 | 9.44° C | 50% | 1007.3 hPa | 0 mm | - | 589 W/m² | - |
| 1778269141 | 9.44° C | 51% | 1007.2 hPa | 0 mm | - | 589 W/m² | - |
| 1778269050 | 9.44° C | 50% | 1007.2 hPa | 0 mm | - | 606 W/m² | - |
| 1778268989 | 9.44° C | 50% | 1007.2 hPa | 0 mm | - | 517 W/m² | - |
| 1778268928 | 9.44° C | 51% | 1007.2 hPa | 0 mm | - | 531 W/m² | - |
| 1778268870 | 9.44° C | 50% | 1007.2 hPa | 0 mm | - | 817 W/m² | - |
| 1778268808 | 9.44° C | 51% | 1007.2 hPa | 0 mm | - | 817 W/m² | - |
| 1778268748 | 9.44° C | 48% | 1007.3 hPa | 0 mm | - | 497 W/m² | - |
| 1778268689 | 9.44° C | 47% | 1007.2 hPa | 0 mm | - | 390 W/m² | - |
| 1778268629 | 9.44° C | 48% | 1007.2 hPa | 0 mm | - | 390 W/m² | - |
* Rain latest hour (hover to see other rain measurements)
** Current wind speed in m/s (hover to see current wind gust speed)